Home > Weather > Hopkinsville > Past weeks

Flag for U.S.A. Weather for the Past 2 Weeks in Hopkinsville, Kentucky, U.S.A.

Now
38 °F

Clear.


Feels Like: 36 °F
Forecast: 33 / 54 °F
Wind: 3 mph from Southwest

Location: Fort Campbell U. S. Army Airfield

Current Time: Feb 6, 2016 at 10:57:30 PM

Latest Report: Feb 6, 2016 at 9:58 PM


Visibility: 10 mi

Pressure: 30.28 "Hg

Humidity: 50%

Dew point: 21 °F

Location of HopkinsvilleLocation

Historic Weather in Hopkinsville — Graph

°F

Hopkinsville Temperature Yesterday

Maximum temperature yesterday: 50 °F (at 2:58 PM)
Minimum temperature yesterday: 24 °F (at 6:58 AM)
Average temperature yesterday: 37 °F

High & Low Weather Summary for the Past Weeks

 TemperatureHumidityPressure
High70 °F (Feb 2, 1:58 PM)100% (Feb 2, 6:58 AM)30.48 "Hg (Feb 2, 6:58 AM)
Low11 °F (Jan 24, 5:58 AM)27% (Feb 6, 3:58 PM)29.58 "Hg (Feb 2, 7:58 PM)
Average41 °F67%30.07 "Hg
* Reported Jan 22 8:58 PM — Feb 6 8:58 PM, Hopkinsville, Weather by CustomWeather, © 2016

Note: Actual official high and low records may vary slightly from our data, if they occured in-between our weather recording intervals... More about our weather records

Advertising

Hopkinsville Weather History for the Previous 24 Hours

 ConditionsComfort  
Time TempWeatherWind HumidityBarometerVisibility
8:58 PM
Sat, Feb 6
40 °FClear.3 mph44%30.29 "Hg10 mi
7:58 PM42 °FClear.5 mph41%30.30 "Hg10 mi
6:58 PM44 °FClear.3 mph40%30.30 "Hg10 mi
5:58 PM47 °FClear.2 mph35%30.30 "Hg10 mi
4:58 PM49 °FClear.6 mph31%30.28 "Hg10 mi
3:58 PM52 °FSunny.8 mph27%30.28 "Hg10 mi
2:58 PM52 °FSunny.6 mph28%30.29 "Hg10 mi
1:58 PM52 °FPassing clouds.7 mph29%30.30 "Hg10 mi
12:58 PM51 °FPassing clouds.6 mph31%30.31 "Hg10 mi
11:58 AM50 °FPassing clouds.9 mph32%30.35 "Hg10 mi
10:58 AM49 °FSunny.9 mph35%30.38 "Hg10 mi
9:58 AM46 °FSunny.6 mph43%30.40 "Hg10 mi
8:58 AM40 °FSunny.5 mph50%30.40 "Hg10 mi
7:58 AM32 °FSunny.1 mph70%30.39 "Hg10 mi
6:58 AM29 °FSunny.3 mph77%30.38 "Hg10 mi
5:58 AM29 °FPartly sunny.3 mph81%30.37 "Hg10 mi
4:58 AM30 °FClear.3 mph74%30.36 "Hg10 mi
3:58 AM30 °FPassing clouds.2 mph75%30.37 "Hg10 mi
2:58 AM31 °FClear.1 mph72%30.37 "Hg10 mi
1:58 AM32 °FClear.No wind67%30.37 "Hg10 mi
12:58 AM33 °FClear.No wind66%30.37 "Hg10 mi
11:58 PM
Fri, Feb 5
35 °FClear.No wind60%30.37 "Hg10 mi
10:58 PM36 °FClear.1 mph58%30.37 "Hg10 mi
Weather by CustomWeather, © 2016

See weather overviewHow to use our weather pages